Weather History for PAWI - August, 2013

Change the Weather History Date:

Friday, August 23, 2013

  Actual Average (PABR) Record (PABR)
Temperature  
Mean Temperature 36 °F 38 °F  
Max Temperature 37 °F 43 °F 65 °F (1954)
Min Temperature 35 °F 34 °F 22 °F (1956)
Degree Days  
Heating Degree Days 29 27  
Month to date heating degree days 587  
Since 1 June heating degree days 2214  
Since 1 July heating degree days 1334  
Cooling Degree Days 0    
Month to date cooling degree days  
Year to date cooling degree days  
Since 1 June cooling degree days  
Moisture  
Dew Point 32 °F    
Average Humidity 85    
Maximum Humidity 89    
Minimum Humidity 79    
Precipitation  
Precipitation 0.00 in 0.03 in 0.37 in (1951)
Month to date precipitation 0.79  
Year to date precipitation 2.79  
Snow  
Snow 0.00 in 0.00 in 0.20 in (2003)
Month to date snowfall 0.5  
Since 1 June snowfall 1.4  
Since 1 July snowfall 0.7  
Snow Depth -    
Sea Level Pressure  
Sea Level Pressure 29.91 in    
Wind  
Wind Speed 7 mph (NNW)    
Max Wind Speed 9 mph    
Max Gust Speed -    
Visibility 9 miles    
Events Rain    
T = Trace of Precipitation, MM = Missing Value Source: NWS Daily Summary

Daily Weather History Graph

Daily Weather History Graph

Search for Another Location

Airport or City:

Trip Planner

Search our weather history database for the weather conditions in past years. The results will help you decide how hot, cold, wet, or windy it might be!

Date:

Astronomy

Aug. 23, 2013 Rise Set
Actual Time 6:11 AM AKDT 11:09 PM AKDT
Civil Twilight 4:31 AM AKDT 12:45 AM AKDT
Nautical Twilight Sun does not rise Sun does not rise
Astronomical Twilight Sun does not rise Sun does not rise
Moon 9:50 PM AKDT (8/23) 11:51 AM AKDT (8/23)
Length of Visible Light 20h 14m
Length of Day
16h 57m
Waning Gibbous, 90% of the Moon is Illuminated
Aug 23
Waning Gibbous
Aug 28
Last Quarter
Sep 5
New
Sep 12
First Quarter
Sep 19
Full

Hourly Weather History & Observations

Time (AKDT) Temp. Windchill Dew Point Humidity Pressure Visibility Wind Dir Wind Speed Gust Speed Precip Events Conditions
12:53 AM 36.0 °F 29.6 °F 32.0 °F 86% 29.81 in 10.0 mi North 8.1 mph - N/A   Overcast
1:04 AM 35.6 °F 29.9 °F 32.0 °F 87% 29.81 in 10.0 mi North 6.9 mph - N/A   Overcast
1:29 AM 35.6 °F 29.9 °F 32.0 °F 87% 29.81 in 10.0 mi North 6.9 mph - N/A   Overcast
1:51 AM 35.6 °F 29.9 °F 32.0 °F 87% 29.82 in 10.0 mi North 6.9 mph - N/A   Overcast
1:53 AM 36.0 °F 30.3 °F 32.0 °F 86% 29.82 in 10.0 mi North 6.9 mph - N/A   Overcast
2:53 AM 35.1 °F 28.6 °F 32.0 °F 89% 29.83 in 9.0 mi North 8.1 mph - N/A   Overcast
3:53 AM 35.1 °F 27.9 °F 30.9 °F 85% 29.84 in 9.0 mi NNW 9.2 mph - N/A   Overcast
4:53 AM 35.1 °F 29.3 °F 32.0 °F 89% 29.85 in 10.0 mi North 6.9 mph - N/A   Overcast
5:53 AM 35.1 °F 30.1 °F 30.9 °F 85% 29.86 in 10.0 mi North 5.8 mph - N/A   Overcast
6:53 AM 35.1 °F 28.6 °F 32.0 °F 89% 29.87 in 10.0 mi North 8.1 mph - N/A   Overcast
7:44 AM 35.6 °F 29.9 °F 32.0 °F 87% 29.88 in 1.8 mi North 6.9 mph - 0.00 in   Overcast
7:53 AM 35.1 °F 29.3 °F 32.0 °F 89% 29.88 in 3.0 mi NNW 6.9 mph - 0.00 in Rain Light Rain
8:53 AM 35.1 °F 29.3 °F 32.0 °F 89% 29.89 in 10.0 mi NNW 6.9 mph - N/A   Overcast
9:35 AM 35.6 °F 29.9 °F 32.0 °F 87% 29.89 in 6.0 mi North 6.9 mph - N/A   Overcast
9:48 AM 35.6 °F 29.9 °F 32.0 °F 87% 29.89 in 10.0 mi NNW 6.9 mph - N/A   Overcast
9:53 AM 36.0 °F 30.3 °F 32.0 °F 86% 29.90 in 10.0 mi North 6.9 mph - N/A   Overcast
10:00 AM 35.6 °F 29.9 °F 32.0 °F 87% 29.90 in 10.0 mi North 6.9 mph - N/A   Overcast
10:49 AM 35.6 °F 30.7 °F 32.0 °F 87% 29.91 in 10.0 mi NNW 5.8 mph - N/A   Overcast
10:53 AM 35.1 °F 29.3 °F 32.0 °F 89% 29.91 in 10.0 mi NNW 6.9 mph - N/A   Overcast
11:01 AM 35.6 °F 29.2 °F 32.0 °F 87% 29.91 in 10.0 mi North 8.1 mph - N/A   Overcast
11:08 AM 35.6 °F 29.9 °F 32.0 °F 87% 29.91 in 10.0 mi North 6.9 mph - N/A   Overcast
11:32 AM 35.6 °F 29.9 °F 32.0 °F 87% 29.91 in 10.0 mi NNW 6.9 mph - N/A   Overcast
11:53 AM 36.0 °F 31.1 °F 32.0 °F 86% 29.92 in 10.0 mi NNW 5.8 mph - N/A   Overcast
12:06 PM 35.6 °F 29.9 °F 32.0 °F 87% 29.92 in 10.0 mi NNW 6.9 mph - N/A   Overcast
12:53 PM 37.0 °F 31.0 °F 32.0 °F 82% 29.93 in 10.0 mi NNW 8.1 mph - N/A   Overcast
1:53 PM 37.0 °F 32.4 °F 30.9 °F 79% 29.94 in 10.0 mi NNW 5.8 mph - N/A   Overcast
2:53 PM 37.0 °F 31.0 °F 32.0 °F 82% 29.95 in 10.0 mi NNW 8.1 mph - 0.00 in   Overcast
3:19 PM 37.4 °F 32.1 °F 32.0 °F 81% 29.95 in 10.0 mi NW 6.9 mph - 0.00 in   Overcast
3:27 PM 37.4 °F 31.4 °F 32.0 °F 81% 29.95 in 10.0 mi NNW 8.1 mph - 0.00 in   Overcast
3:53 PM 37.0 °F 31.6 °F 32.0 °F 82% 29.96 in 10.0 mi NNW 6.9 mph - 0.00 in   Overcast
4:53 PM 37.0 °F 32.4 °F 30.9 °F 79% 29.96 in 10.0 mi NW 5.8 mph - N/A   Overcast
5:53 PM 37.0 °F 31.0 °F 32.0 °F 82% 29.97 in 10.0 mi NNW 8.1 mph - 0.00 in   Overcast
6:53 PM 37.0 °F 31.6 °F 30.9 °F 79% 29.98 in 10.0 mi NNW 6.9 mph - 0.00 in   Overcast
7:53 PM 36.0 °F 31.1 °F 32.0 °F 86% 29.98 in 10.0 mi NNW 5.8 mph - N/A   Overcast
8:53 PM 36.0 °F 33.3 °F 30.9 °F 82% 29.99 in 10.0 mi NW 3.5 mph - N/A   Overcast
9:53 PM 36.0 °F 32.1 °F 30.9 °F 82% 30.00 in 10.0 mi NW 4.6 mph - N/A   Overcast
10:53 PM 35.1 °F 30.1 °F 30.9 °F 85% 30.01 in 10.0 mi NNW 5.8 mph - N/A   Overcast
11:53 PM 35.1 °F 32.2 °F 30.9 °F 85% 30.01 in 10.0 mi NW 3.5 mph - N/A   Overcast